Weather History for Quincy, IL

Change the Weather History Date:

Thursday, February 23, 2012

  Actual Average Record
Temperature  
Mean Temperature 48 °F 34 °F  
Max Temperature 57 °F 42 °F 70 °F (1922)
Min Temperature 39 °F 25 °F -7 °F (1989)
Degree Days  
Heating Degree Days 17 32  
Month to date heating degree days 804  
Since 1 July heating degree days 4190  
Cooling Degree Days 0 0  
Month to date cooling degree days 0  
Year to date cooling degree days 0  
Moisture  
Dew Point 38 °F    
Average Humidity 76    
Maximum Humidity 93    
Minimum Humidity 51    
Precipitation  
Precipitation 0.15 in 0.07 in 1.13 in (1909)
Month to date precipitation 1.48  
Year to date precipitation 3.00  
Sea Level Pressure  
Sea Level Pressure 29.41 in    
Wind  
Wind Speed 8 mph (SSE)    
Max Wind Speed 23 mph    
Max Gust Speed 30 mph    
Visibility 9 miles    
Events Rain    
T = Trace of Precipitation, MM = Missing Value Source: NWS Daily Summary

Daily Weather History Graph

Daily Weather History Graph

Search for Another Location

Airport:

Trip Planner

Search our weather history database for the weather conditions in past years. The results will help you decide how hot, cold, wet, or windy it might be!

Date:

Astronomy

Feb. 23, 2012 Rise Set
Actual Time 6:47 AM CST 5:49 PM CST
Civil Twilight 6:20 AM CST 6:16 PM CST
Nautical Twilight 5:48 AM CST 6:48 PM CST
Astronomical Twilight 5:17 AM CST 7:19 PM CST
Moon 7:14 AM CST (2/23) 7:55 PM CST (2/23)
Length of Visible Light 11h 56m
Length of Day
11h 02m
Waxing Crescent, 3% of the Moon is Illuminated
Feb 23
Waxing Crescent
Feb 29
First Quarter
Mar 8
Full
Mar 14
Last Quarter
Mar 22
New

Hourly Weather History & Observations

Time (CST) Temp. Windchill Dew Point Humidity Pressure Visibility Wind Dir Wind Speed Gust Speed Precip Events Conditions
12:54 AM 42.1 °F 40.2 °F 28.9 °F 60% 29.48 in 10.0 mi SSW 3.5 mph - N/A   Mostly Cloudy
1:54 AM 44.1 °F 40.8 °F 30.0 °F 58% 29.48 in 10.0 mi South 5.8 mph - N/A   Overcast
2:54 AM 44.1 °F 41.5 °F 30.0 °F 58% 29.46 in 10.0 mi South 4.6 mph - N/A   Overcast
3:54 AM 41.0 °F 36.4 °F 34.0 °F 76% 29.47 in 9.0 mi South 6.9 mph - 0.00 in Rain Light Rain
4:54 AM 39.9 °F 35.8 °F 37.0 °F 89% 29.44 in 4.0 mi South 5.8 mph - 0.10 in Rain Light Rain
5:54 AM 39.9 °F 35.8 °F 37.9 °F 93% 29.42 in 10.0 mi SE 5.8 mph - 0.05 in   Overcast
6:01 AM 39.2 °F 35.0 °F 37.4 °F 93% 29.42 in 10.0 mi SSE 5.8 mph - N/A   Overcast
6:54 AM 42.1 °F 36.6 °F 37.0 °F 82% 29.41 in 10.0 mi ESE 9.2 mph - 0.00 in   Overcast
7:54 AM 42.8 °F 37.0 °F 37.4 °F 81% 29.40 in 10.0 mi ESE 10.4 mph - N/A   Overcast
8:54 AM 43.0 °F 35.4 °F 37.9 °F 82% 29.35 in 10.0 mi SE 16.1 mph - 0.00 in   Overcast
9:54 AM 46.0 °F 41.0 °F 37.9 °F 73% 29.34 in 10.0 mi East 10.4 mph - N/A   Overcast
10:54 AM 48.9 °F - 39.9 °F 71% 29.34 in 10.0 mi East 9.2 mph - N/A   Overcast
11:54 AM 52.0 °F - 39.0 °F 61% 29.31 in 10.0 mi East 11.5 mph - N/A   Partly Cloudy
12:54 PM 52.0 °F - 42.1 °F 69% 29.31 in 10.0 mi NE 8.1 mph - N/A   Clear
1:54 PM 55.9 °F - 43.0 °F 62% 29.29 in 10.0 mi NE 8.1 mph - N/A   Clear
2:54 PM 57.0 °F - 39.0 °F 51% 29.28 in 10.0 mi ESE 9.2 mph - N/A   Clear
3:54 PM 57.9 °F - 39.9 °F 51% 29.32 in 10.0 mi ENE 3.5 mph - N/A   Scattered Clouds
4:54 PM 53.1 °F - 43.0 °F 69% 29.34 in 10.0 mi NE 9.2 mph - N/A   Clear
5:54 PM 48.9 °F - 42.1 °F 77% 29.35 in 10.0 mi NNE 6.9 mph - N/A   Mostly Cloudy
6:54 PM 45.0 °F 38.2 °F 39.9 °F 82% 29.41 in 10.0 mi WNW 15.0 mph 20.7 mph N/A   Overcast
7:47 PM 42.8 °F 37.0 °F 39.2 °F 87% 29.43 in 6.0 mi NW 10.4 mph - 0.00 in   Overcast
7:54 PM 42.1 °F 37.7 °F 39.9 °F 92% 29.45 in 6.0 mi NW 6.9 mph - 0.00 in   Overcast
8:19 PM 42.8 °F 38.6 °F 39.2 °F 87% 29.46 in 6.0 mi WNW 6.9 mph - N/A   Overcast
8:54 PM 42.1 °F 37.7 °F 39.9 °F 92% 29.48 in 5.0 mi West 6.9 mph - N/A   Overcast
9:12 PM 42.8 °F 40.1 °F 39.2 °F 87% 29.47 in 6.0 mi West 4.6 mph - N/A   Overcast
9:54 PM 43.0 °F 38.2 °F 39.0 °F 86% 29.49 in 8.0 mi West 8.1 mph - N/A   Overcast
10:54 PM 43.0 °F 37.7 °F 39.0 °F 86% 29.48 in 8.0 mi WSW 9.2 mph - N/A   Overcast
11:13 PM 42.8 °F 33.8 °F 35.6 °F 76% 29.47 in 10.0 mi West 21.9 mph 29.9 mph N/A   Overcast
11:54 PM 39.9 °F 29.7 °F 30.9 °F 70% 29.49 in 10.0 mi West 23.0 mph 29.9 mph N/A   Overcast